Voltar ao catálogo

IRIDIUM 161

AtivoComunicaçõesPO
NORAD 43478·PAYLOAD·🇺🇸 United States

Lançado May 22, 2018 de Vandenberg Space Force Base

Loading…

Próximas Passagens (próximas 24 horas)

TLE

AtualizadoSource: CelesTrak SupGP

Época: Sep 14, 2026, 22:22 UTC

1 43478C 18047C   26257.93229167  .00002529  00000+0  75276-3 0  2571
2 43478  86.4469  50.9123 0002337  97.1706 158.4156 14.43279085    14

Acompanhe IRIDIUM 161 em tempo real com AllMySat

Download on the App Store